Time,TemperatureF,DewpointF,PressureIn,WindDirection,WindDirectionDegrees,WindSpeedMPH,WindSpeedGustMPH,Humidity,HourlyPrecipIn,Conditions,Clouds,dailyrainin,SoftwareType,DateUTC
2013-02-17 00:00:00,31.2,29.9,29.56,North,353,5.0,9.0,95,0.00,RA,,0.00,WeatherDisplay:10.37,2013-02-17 05:00:00,
2013-02-17 00:03:00,31.1,29.8,29.57,North,0,9.2,9.2,95,0.00,RA,,0.00,WeatherDisplay:10.37,2013-02-17 05:03:00,
2013-02-17 00:08:00,30.7,29.5,29.57,NNE,22,13.8,13.8,95,0.00,RA,,0.00,WeatherDisplay:10.37,2013-02-17 05:08:00,
2013-02-17 00:13:00,30.6,29.3,29.57,North,0,8.1,8.1,95,0.00,CLR,,0.00,WeatherDisplay:10.37,2013-02-17 05:13:00,
2013-02-17 00:18:00,30.6,29.3,29.57,North,0,9.8,9.8,95,0.00,CLR,,0.00,WeatherDisplay:10.37,2013-02-17 05:18:00,
2013-02-17 00:23:00,30.4,29.1,29.57,North,0,10.4,10.4,95,0.00,CLR,,0.00,WeatherDisplay:10.37,2013-02-17 05:23:00,
2013-02-17 00:28:00,30.4,29.1,29.57,North,0,8.1,8.1,95,0.00,CLR,,0.00,WeatherDisplay:10.37,2013-02-17 05:28:00,
2013-02-17 00:33:00,30.4,29.1,29.57,North,0,5.8,5.8,95,0.00,CLR,,0.00,WeatherDisplay:10.37,2013-02-17 05:33:00,
2013-02-17 00:38:00,30.4,29.1,29.57,North,0,8.1,8.1,95,0.00,CLR,,0.00,WeatherDisplay:10.37,2013-02-17 05:38:00,
2013-02-17 00:43:00,30.4,29.1,29.57,North,0,5.8,5.8,95,0.00,CLR,,0.00,WeatherDisplay:10.37,2013-02-17 05:43:00,
2013-02-17 00:48:00,30.4,29.1,29.57,SW,225,5.8,5.8,95,0.00,CLR,,0.00,WeatherDisplay:10.37,2013-02-17 05:48:00,
2013-02-17 00:53:00,30.4,29.1,29.57,North,0,6.9,6.9,95,0.00,CLR,,0.00,WeatherDisplay:10.37,2013-02-17 05:53:00,
2013-02-17 00:58:00,30.4,29.1,29.58,NW,315,12.7,12.7,95,0.00,CLR,,0.00,WeatherDisplay:10.37,2013-02-17 05:58:00,
2013-02-17 01:03:00,30.4,29.1,29.58,NW,315,8.1,8.1,95,0.00,CLR,,0.00,WeatherDisplay:10.37,2013-02-17 06:03:00,
2013-02-17 01:08:00,30.4,28.9,29.58,WNW,292,8.1,8.1,94,0.00,CLR,,0.00,WeatherDisplay:10.37,2013-02-17 06:08:00,
2013-02-17 01:13:00,30.2,28.7,29.58,North,0,11.5,11.5,94,0.00,CLR,,0.00,WeatherDisplay:10.37,2013-02-17 06:13:00,
2013-02-17 01:18:00,30.2,28.7,29.59,NNE,22,11.5,11.5,94,0.00,CLR,,0.00,WeatherDisplay:10.37,2013-02-17 06:18:00,
2013-02-17 01:23:00,30.0,28.8,29.59,North,0,8.1,8.1,95,0.00,CLR,,0.00,WeatherDisplay:10.37,2013-02-17 06:23:00,
2013-02-17 01:28:00,29.8,28.3,29.59,NW,315,10.4,10.4,94,0.00,CLR,,0.00,WeatherDisplay:10.37,2013-02-17 06:28:00,
2013-02-17 01:33:00,29.7,27.9,29.59,NE,45,12.7,12.7,93,0.00,CLR,,0.00,WeatherDisplay:10.37,2013-02-17 06:33:00,
2013-02-17 01:38:00,29.7,27.6,29.59,North,0,15.0,15.0,92,0.00,CLR,,0.00,WeatherDisplay:10.37,2013-02-17 06:38:00,
2013-02-17 01:43:00,29.7,27.4,29.59,North,0,10.4,10.4,91,0.00,CLR,,0.00,WeatherDisplay:10.37,2013-02-17 06:43:00,
2013-02-17 01:48:00,29.7,27.1,29.59,North,0,10.4,10.4,90,0.00,CLR,,0.00,WeatherDisplay:10.37,2013-02-17 06:48:00,
2013-02-17 01:53:00,29.8,27.3,29.59,North,0,5.8,5.8,90,0.00,CLR,,0.00,WeatherDisplay:10.37,2013-02-17 06:53:00,
2013-02-17 01:58:00,29.8,27.0,29.59,NW,315,5.8,5.8,89,0.00,CLR,,0.00,WeatherDisplay:10.37,2013-02-17 06:58:00,
2013-02-17 02:03:00,29.8,27.0,29.59,North,0,3.5,3.5,89,0.00,CLR,,0.00,WeatherDisplay:10.37,2013-02-17 07:03:00,
2013-02-17 02:08:00,29.8,26.7,29.60,North,0,5.8,5.8,88,0.00,CLR,,0.00,WeatherDisplay:10.37,2013-02-17 07:08:00,
2013-02-17 02:13:00,29.8,26.7,29.59,North,0,4.6,4.6,88,0.00,CLR,,0.00,WeatherDisplay:10.37,2013-02-17 07:13:00,
2013-02-17 02:18:00,29.8,26.7,29.59,North,0,5.8,5.8,88,0.00,CLR,,0.00,WeatherDisplay:10.37,2013-02-17 07:18:00,
2013-02-17 02:23:00,29.8,26.7,29.59,NE,45,4.6,4.6,88,0.00,CLR,,0.00,WeatherDisplay:10.37,2013-02-17 07:23:00,
2013-02-17 02:28:00,29.7,26.3,29.60,NE,45,3.5,3.5,87,0.00,CLR,,0.00,WeatherDisplay:10.37,2013-02-17 07:28:00,
2013-02-17 02:33:00,29.7,26.3,29.60,North,0,3.5,3.5,87,0.00,CLR,,0.00,WeatherDisplay:10.37,2013-02-17 07:33:00,
2013-02-17 02:38:00,29.7,26.3,29.60,North,0,4.6,4.6,87,0.00,CLR,,0.00,WeatherDisplay:10.37,2013-02-17 07:38:00,
2013-02-17 02:43:00,29.5,26.1,29.60,NW,315,5.8,5.8,87,0.00,CLR,,0.00,WeatherDisplay:10.37,2013-02-17 07:43:00,
2013-02-17 02:49:00,29.3,25.6,29.60,North,0,6.9,6.9,86,0.00,CLR,,0.00,WeatherDisplay:10.37,2013-02-17 07:49:00,
2013-02-17 02:54:00,29.3,25.6,29.60,NE,45,5.8,5.8,86,0.00,CLR,,0.00,WeatherDisplay:10.37,2013-02-17 07:54:00,
2013-02-17 02:59:00,29.3,25.4,29.60,North,0,5.8,5.8,85,0.00,CLR,,0.00,WeatherDisplay:10.37,2013-02-17 07:59:00,
2013-02-17 03:04:00,29.1,24.9,29.60,NE,45,6.9,6.9,84,0.00,CLR,,0.00,WeatherDisplay:10.37,2013-02-17 08:04:00,
2013-02-17 03:09:00,28.9,24.1,29.60,NNE,22,5.8,5.8,82,0.00,CLR,,0.00,WeatherDisplay:10.37,2013-02-17 08:09:00,
2013-02-17 03:14:00,28.8,23.7,29.60,North,0,4.6,4.6,81,0.00,CLR,,0.00,WeatherDisplay:10.37,2013-02-17 08:14:00,
2013-02-17 03:19:00,28.6,23.2,29.60,NNW,338,5.8,5.8,80,0.00,CLR,,0.00,WeatherDisplay:10.37,2013-02-17 08:19:00,
2013-02-17 03:24:00,28.4,23.0,29.60,North,0,8.1,8.1,80,0.00,CLR,,0.00,WeatherDisplay:10.37,2013-02-17 08:24:00,
2013-02-17 03:29:00,28.2,21.6,29.60,NNE,22,6.9,6.9,76,0.00,CLR,,0.00,WeatherDisplay:10.37,2013-02-17 08:29:00,
2013-02-17 03:34:00,28.0,21.1,29.61,North,0,5.8,5.8,75,0.00,CLR,,0.00,WeatherDisplay:10.37,2013-02-17 08:34:00,
2013-02-17 03:39:00,28.0,21.1,29.60,North,0,5.8,5.8,75,0.00,CLR,,0.00,WeatherDisplay:10.37,2013-02-17 08:39:00,
2013-02-17 03:44:00,27.9,21.0,29.61,North,0,6.9,6.9,75,0.00,CLR,,0.00,WeatherDisplay:10.37,2013-02-17 08:44:00,
2013-02-17 03:49:00,27.9,21.0,29.60,North,0,6.9,6.9,75,0.00,CLR,,0.00,WeatherDisplay:10.37,2013-02-17 08:49:00,
2013-02-17 03:54:00,27.7,20.5,29.61,North,0,5.8,5.8,74,0.00,CLR,,0.00,WeatherDisplay:10.37,2013-02-17 08:54:00,
2013-02-17 03:59:00,27.7,20.5,29.61,NNE,22,8.1,8.1,74,0.00,CLR,,0.00,WeatherDisplay:10.37,2013-02-17 08:59:00,
2013-02-17 04:04:00,27.7,20.2,29.61,North,0,4.6,4.6,73,0.00,CLR,,0.00,WeatherDisplay:10.37,2013-02-17 09:04:00,
2013-02-17 04:09:00,27.5,20.0,29.62,North,0,8.1,8.1,73,0.00,CLR,,0.00,WeatherDisplay:10.37,2013-02-17 09:09:00,
2013-02-17 04:14:00,27.3,19.8,29.62,North,0,5.8,5.8,73,0.00,CLR,,0.00,WeatherDisplay:10.37,2013-02-17 09:14:00,
2013-02-17 04:19:00,27.3,19.8,29.62,NW,315,5.8,5.8,73,0.00,CLR,,0.00,WeatherDisplay:10.37,2013-02-17 09:19:00,
2013-02-17 04:24:00,27.3,19.8,29.62,North,0,5.8,5.8,73,0.00,CLR,,0.00,WeatherDisplay:10.37,2013-02-17 09:24:00,
2013-02-17 04:29:00,27.1,19.6,29.62,North,0,5.8,5.8,73,0.00,CLR,,0.00,WeatherDisplay:10.37,2013-02-17 09:29:00,
2013-02-17 04:34:00,27.1,19.6,29.62,North,0,4.6,4.6,73,0.00,CLR,,0.00,WeatherDisplay:10.37,2013-02-17 09:34:00,
2013-02-17 04:39:00,27.0,19.8,29.62,East,90,3.5,3.5,74,0.00,CLR,,0.00,WeatherDisplay:10.37,2013-02-17 09:39:00,
2013-02-17 04:44:00,26.6,19.4,29.62,North,0,3.5,3.5,74,0.00,CLR,,0.00,WeatherDisplay:10.37,2013-02-17 09:44:00,
2013-02-17 04:49:00,26.4,19.6,29.63,North,0,3.5,3.5,75,0.00,CLR,,0.00,WeatherDisplay:10.37,2013-02-17 09:49:00,
2013-02-17 04:54:00,26.1,19.2,29.63,North,0,1.2,0.0,75,0.00,CLR,,0.00,WeatherDisplay:10.37,2013-02-17 09:54:00,
2013-02-17 04:59:00,25.7,18.9,29.64,SE,135,1.2,0.0,75,0.00,CLR,,0.00,WeatherDisplay:10.37,2013-02-17 09:59:00,
2013-02-17 05:04:00,25.3,18.5,29.64,NE,45,2.3,2.3,75,0.00,CLR,,0.00,WeatherDisplay:10.37,2013-02-17 10:04:00,
2013-02-17 05:09:00,25.2,18.3,29.64,SE,135,1.2,0.0,75,0.00,CLR,,0.00,WeatherDisplay:10.37,2013-02-17 10:09:00,
2013-02-17 05:14:00,25.2,18.7,29.65,ENE,68,1.2,0.0,76,0.00,CLR,,0.00,WeatherDisplay:10.37,2013-02-17 10:14:00,
2013-02-17 05:19:00,25.2,18.7,29.65,East,90,1.2,0.0,76,0.00,CLR,,0.00,WeatherDisplay:10.37,2013-02-17 10:19:00,
2013-02-17 05:24:00,25.2,18.7,29.65,North,0,2.3,2.3,76,0.00,CLR,,0.00,WeatherDisplay:10.37,2013-02-17 10:24:00,
2013-02-17 05:29:00,25.5,19.0,29.65,North,0,3.5,3.5,76,0.00,CLR,,0.00,WeatherDisplay:10.37,2013-02-17 10:29:00,
2013-02-17 05:34:00,25.7,19.2,29.65,North,0,4.6,4.6,76,0.00,CLR,,0.00,WeatherDisplay:10.37,2013-02-17 10:34:00,
2013-02-17 05:39:00,25.9,19.0,29.65,SW,225,4.6,4.6,75,0.00,CLR,,0.00,WeatherDisplay:10.37,2013-02-17 10:39:00,
2013-02-17 05:44:00,26.1,19.2,29.66,North,0,5.8,5.8,75,0.00,CLR,,0.00,WeatherDisplay:10.37,2013-02-17 10:44:00,
2013-02-17 05:49:00,26.2,19.1,29.66,NE,45,5.8,5.8,74,0.00,CLR,,0.00,WeatherDisplay:10.37,2013-02-17 10:49:00,
2013-02-17 05:54:00,26.2,19.1,29.66,North,0,5.8,5.8,74,0.00,CLR,,0.00,WeatherDisplay:10.37,2013-02-17 10:54:00,
2013-02-17 05:59:00,26.2,18.8,29.66,North,0,5.8,6.0,73,0.00,CLR,,0.00,WeatherDisplay:10.37,2013-02-17 10:59:00,
2013-02-17 06:04:00,26.4,18.9,29.66,North,0,10.4,10.4,73,0.00,CLR,,0.00,WeatherDisplay:10.37,2013-02-17 11:04:00,
2013-02-17 06:09:00,26.4,18.6,29.66,WNW,292,6.9,6.9,72,0.00,CLR,,0.00,WeatherDisplay:10.37,2013-02-17 11:09:00,
2013-02-17 06:14:00,26.4,18.3,29.67,North,0,8.1,8.1,71,0.00,CLR,,0.00,WeatherDisplay:10.37,2013-02-17 11:14:00,
2013-02-17 06:19:00,26.4,18.0,29.66,NW,315,6.9,6.9,70,0.00,CLR,,0.00,WeatherDisplay:10.37,2013-02-17 11:19:00,
2013-02-17 06:24:00,26.4,17.6,29.67,North,0,10.4,10.4,69,0.00,CLR,,0.00,WeatherDisplay:10.37,2013-02-17 11:24:00,
2013-02-17 06:29:00,26.4,17.3,29.67,NNE,22,10.4,10.4,68,0.00,CLR,,0.00,WeatherDisplay:10.37,2013-02-17 11:29:00,
2013-02-17 06:34:00,26.4,16.9,29.67,North,0,11.5,11.5,67,0.00,CLR,,0.00,WeatherDisplay:10.37,2013-02-17 11:34:00,
2013-02-17 06:39:00,26.4,16.6,29.67,North,0,5.8,6.0,66,0.00,CLR,,0.00,WeatherDisplay:10.37,2013-02-17 11:39:00,
2013-02-17 06:44:00,26.4,16.2,29.67,North,0,12.7,12.7,65,0.00,CLR,,0.00,WeatherDisplay:10.37,2013-02-17 11:44:00,
2013-02-17 06:49:00,26.4,15.5,29.68,NNW,338,12.7,12.7,63,0.00,CLR,,0.00,WeatherDisplay:10.37,2013-02-17 11:49:00,
2013-02-17 06:54:00,26.6,14.9,29.68,North,0,6.9,6.9,61,0.00,CLR,,0.00,WeatherDisplay:10.37,2013-02-17 11:54:00,
2013-02-17 06:59:00,26.4,15.2,29.68,North,0,8.1,8.1,62,0.00,CLR,,0.00,WeatherDisplay:10.37,2013-02-17 11:59:00,
2013-02-17 07:04:00,26.2,14.6,29.69,North,0,8.1,8.1,61,0.00,CLR,,0.00,WeatherDisplay:10.37,2013-02-17 12:04:00,
2013-02-17 07:09:00,26.4,14.4,29.69,North,0,10.4,10.4,60,0.00,CLR,,0.00,WeatherDisplay:10.37,2013-02-17 12:09:00,
2013-02-17 07:14:00,26.2,14.2,29.69,North,0,12.7,12.7,60,0.00,CLR,,0.00,WeatherDisplay:10.37,2013-02-17 12:14:00,
2013-02-17 07:19:00,26.6,13.4,29.69,North,0,10.4,10.4,57,0.00,CLR,,0.00,WeatherDisplay:10.37,2013-02-17 12:19:00,
2013-02-17 07:24:00,26.8,13.6,29.69,North,0,6.9,6.9,57,0.00,CLR,,0.00,WeatherDisplay:10.37,2013-02-17 12:24:00,
2013-02-17 07:29:00,27.3,13.7,29.69,North,0,8.1,8.1,56,0.00,CLR,,0.00,WeatherDisplay:10.37,2013-02-17 12:29:00,
2013-02-17 07:34:00,28.2,13.3,29.70,North,0,10.4,10.4,53,0.00,CLR,,0.00,WeatherDisplay:10.37,2013-02-17 12:34:00,
2013-02-17 07:39:00,29.1,15.4,29.70,NNE,22,10.4,10.4,56,0.00,CLR,,0.00,WeatherDisplay:10.37,2013-02-17 12:39:00,
2013-02-17 07:44:00,29.5,15.3,29.70,SW,225,11.5,11.5,55,0.00,CLR,,0.00,WeatherDisplay:10.37,2013-02-17 12:44:00,
2013-02-17 07:49:00,29.7,14.6,29.71,North,0,6.9,6.9,53,0.00,CLR,,0.00,WeatherDisplay:10.37,2013-02-17 12:49:00,
2013-02-17 07:54:00,29.8,14.3,29.71,NNW,338,10.4,10.4,52,0.00,CLR,,0.00,WeatherDisplay:10.37,2013-02-17 12:54:00,
2013-02-17 07:59:00,30.0,14.1,29.71,NE,45,8.1,8.1,51,0.00,CLR,,0.00,WeatherDisplay:10.37,2013-02-17 12:59:00,
2013-02-17 08:04:00,30.4,13.9,29.71,North,0,8.1,8.1,50,0.00,CLR,,0.00,WeatherDisplay:10.37,2013-02-17 13:04:00,
2013-02-17 08:09:00,31.1,14.1,29.71,North,0,5.8,5.8,49,0.00,CLR,,0.00,WeatherDisplay:10.37,2013-02-17 13:09:00,
2013-02-17 08:14:00,31.5,14.0,29.71,North,0,8.1,8.1,48,0.00,CLR,,0.00,WeatherDisplay:10.37,2013-02-17 13:14:00,
2013-02-17 08:19:00,31.8,14.8,29.71,NE,45,6.9,6.9,49,0.00,CLR,,0.00,WeatherDisplay:10.37,2013-02-17 13:19:00,
2013-02-17 08:24:00,32.2,14.2,29.72,NNW,338,10.4,10.4,47,0.00,CLR,,0.00,WeatherDisplay:10.37,2013-02-17 13:24:00,
2013-02-17 08:29:00,32.2,14.2,29.72,North,0,8.1,8.1,47,0.00,CLR,,0.00,WeatherDisplay:10.37,2013-02-17 13:29:00,
2013-02-17 08:34:00,32.5,15.0,29.73,East,90,14.5,14.5,48,0.00,CLR,,0.00,WeatherDisplay:10.37,2013-02-17 13:34:00,
2013-02-17 08:39:00,32.2,14.7,29.73,North,0,10.4,10.4,48,0.00,CLR,,0.00,WeatherDisplay:10.37,2013-02-17 13:39:00,
2013-02-17 08:44:00,32.4,15.8,29.73,North,0,10.7,10.7,50,0.00,CLR,,0.00,WeatherDisplay:10.37,2013-02-17 13:44:00,
2013-02-17 08:49:00,32.5,15.5,29.73,North,0,12.7,12.7,49,0.00,CLR,,0.00,WeatherDisplay:10.37,2013-02-17 13:49:00,
2013-02-17 08:54:00,32.4,14.4,29.73,NE,45,12.7,12.7,47,0.00,CLR,,0.00,WeatherDisplay:10.37,2013-02-17 13:54:00,
2013-02-17 08:59:00,32.5,14.0,29.73,North,0,12.7,12.7,46,0.00,CLR,,0.00,WeatherDisplay:10.37,2013-02-17 13:59:00,
2013-02-17 09:04:00,33.1,14.0,29.73,WNW,292,8.1,8.1,45,0.00,CLR,,0.00,WeatherDisplay:10.37,2013-02-17 14:04:00,
2013-02-17 09:09:00,32.9,12.8,29.73,NNE,22,17.3,17.3,43,0.00,CLR,,0.00,WeatherDisplay:10.37,2013-02-17 14:09:00,
2013-02-17 09:14:00,32.5,11.4,29.73,NE,45,17.3,17.3,41,0.00,CLR,,0.00,WeatherDisplay:10.37,2013-02-17 14:14:00,
2013-02-17 09:19:00,32.4,12.3,29.74,NW,315,16.1,16.1,43,0.00,CLR,,0.00,WeatherDisplay:10.37,2013-02-17 14:19:00,
2013-02-17 09:24:00,32.4,12.3,29.74,North,0,20.7,20.7,43,0.00,CLR,,0.00,WeatherDisplay:10.37,2013-02-17 14:24:00,
2013-02-17 09:29:00,32.5,12.5,29.74,North,0,20.7,20.7,43,0.01,RA,,0.01,WeatherDisplay:10.37,2013-02-17 14:29:00,
2013-02-17 09:34:00,30.4,11.0,29.74,NNE,22,19.6,19.6,44,0.02,RA,,0.02,WeatherDisplay:10.37,2013-02-17 14:34:00,
2013-02-17 09:39:00,30.4,11.0,29.74,North,0,20.7,20.7,44,0.02,RA,,0.02,WeatherDisplay:10.37,2013-02-17 14:39:00,
2013-02-17 09:44:00,31.1,11.7,29.75,North,0,13.8,13.8,44,0.02,CLR,,0.02,WeatherDisplay:10.37,2013-02-17 14:44:00,
2013-02-17 09:49:00,31.8,12.4,29.75,NW,315,19.6,19.6,44,0.02,CLR,,0.02,WeatherDisplay:10.37,2013-02-17 14:49:00,
2013-02-17 09:54:00,30.9,11.0,29.75,North,0,17.3,17.3,43,0.02,CLR,,0.02,WeatherDisplay:10.37,2013-02-17 14:54:00,
2013-02-17 10:00:00,31.4,10.4,29.75,North,351,10.0,20.0,41,0.00,CLR,,0.02,WeatherDisplay:10.37,2013-02-17 15:00:00,
2013-02-17 10:05:00,31.6,10.6,29.75,North,0,19.6,19.6,41,0.02,CLR,,0.02,WeatherDisplay:10.37,2013-02-17 15:05:00,
2013-02-17 10:10:00,32.2,10.5,29.75,North,3,16.1,16.1,40,0.02,CLR,,0.02,WeatherDisplay:10.37,2013-02-17 15:10:00,
2013-02-17 10:15:00,32.5,10.9,29.76,North,0,15.0,15.0,40,0.02,CLR,,0.02,WeatherDisplay:10.37,2013-02-17 15:15:00,
2013-02-17 10:20:00,33.1,11.3,29.76,North,0,15.0,15.0,40,0.02,CLR,,0.02,WeatherDisplay:10.37,2013-02-17 15:20:00,
2013-02-17 10:25:00,31.8,9.6,29.76,North,0,17.3,17.3,39,0.02,CLR,,0.02,WeatherDisplay:10.37,2013-02-17 15:25:00,
2013-02-17 10:30:00,31.8,9.6,29.76,NNE,14,23.0,23.0,39,0.01,CLR,,0.02,WeatherDisplay:10.37,2013-02-17 15:30:00,
2013-02-17 10:35:00,32.9,10.0,29.76,ENE,68,29.9,29.9,38,0.01,RA,,0.04,WeatherDisplay:10.37,2013-02-17 15:35:00,
2013-02-17 10:40:00,32.0,7.4,29.77,NE,45,19.6,19.6,35,0.05,RA,,0.07,WeatherDisplay:10.37,2013-02-17 15:40:00,
2013-02-17 10:45:00,32.7,7.4,29.77,North,0,19.7,19.7,34,0.05,RA,,0.07,WeatherDisplay:10.37,2013-02-17 15:45:00,
2013-02-17 10:50:00,33.4,7.4,29.77,WNW,292,17.3,17.3,33,0.05,CLR,,0.07,WeatherDisplay:10.37,2013-02-17 15:50:00,
2013-02-17 10:55:00,33.3,6.5,29.78,WNW,292,27.6,27.6,32,0.05,CLR,,0.07,WeatherDisplay:10.37,2013-02-17 15:55:00,
2013-02-17 11:00:00,33.1,6.4,29.77,NNW,338,23.0,23.0,32,0.05,CLR,,0.07,WeatherDisplay:10.37,2013-02-17 16:00:00,
2013-02-17 11:05:00,33.3,5.8,29.77,WNW,292,23.0,23.0,31,0.05,CLR,,0.07,WeatherDisplay:10.37,2013-02-17 16:05:00,
2013-02-17 11:10:00,33.1,4.2,29.77,North,0,20.7,20.7,29,0.05,CLR,,0.07,WeatherDisplay:10.37,2013-02-17 16:10:00,
2013-02-17 11:15:00,33.4,4.5,29.77,North,0,18.4,18.4,29,0.05,CLR,,0.07,WeatherDisplay:10.37,2013-02-17 16:15:00,
2013-02-17 11:20:00,33.6,4.7,29.78,North,0,13.8,13.8,29,0.05,CLR,,0.07,WeatherDisplay:10.37,2013-02-17 16:20:00,
2013-02-17 11:25:00,33.8,4.1,29.78,North,0,19.6,19.6,28,0.05,CLR,,0.07,WeatherDisplay:10.37,2013-02-17 16:25:00,
2013-02-17 11:30:00,34.5,5.5,29.77,NNW,338,10.4,16.8,29,0.05,CLR,,0.09,WeatherDisplay:10.37,2013-02-17 16:30:00,
2013-02-17 11:35:00,34.5,4.7,29.78,North,0,12.7,13.7,28,0.06,RA,,0.09,WeatherDisplay:10.37,2013-02-17 16:35:00,
2013-02-17 11:40:00,34.7,6.4,29.77,North,0,17.3,17.3,30,0.02,RA,,0.09,WeatherDisplay:10.37,2013-02-17 16:40:00,
2013-02-17 11:45:00,34.9,5.0,29.77,North,0,20.7,20.7,28,0.02,CLR,,0.09,WeatherDisplay:10.37,2013-02-17 16:45:00,
2013-02-17 11:50:00,35.2,5.3,29.78,NE,45,23.0,23.0,28,0.04,RA,,0.11,WeatherDisplay:10.37,2013-02-17 16:50:00,
2013-02-17 11:55:00,35.1,5.2,29.77,North,0,18.4,18.4,28,0.04,RA,,0.11,WeatherDisplay:10.37,2013-02-17 16:55:00,
2013-02-17 12:00:00,34.2,2.8,29.77,North,0,27.6,27.6,26,0.04,,,0.11,WeatherDisplay:10.37,2013-02-17 17:00:00,
2013-02-17 12:05:00,34.2,3.6,29.78,North,0,24.2,24.2,27,0.04,CLR,,0.11,WeatherDisplay:10.37,2013-02-17 17:05:00,
2013-02-17 12:10:00,33.6,2.3,29.78,North,0,25.3,25.3,26,0.04,CLR,,0.11,WeatherDisplay:10.37,2013-02-17 17:10:00,
2013-02-17 12:15:00,33.6,2.3,29.77,North,0,18.4,18.4,26,0.04,CLR,,0.11,WeatherDisplay:10.37,2013-02-17 17:15:00,
2013-02-17 12:20:00,34.3,3.8,29.77,North,0,12.7,12.7,27,0.04,CLR,,0.11,WeatherDisplay:10.37,2013-02-17 17:20:00,
2013-02-17 12:25:00,34.3,3.8,29.77,NE,45,17.3,17.3,27,0.04,CLR,,0.11,WeatherDisplay:10.37,2013-02-17 17:25:00,
2013-02-17 12:30:00,34.9,5.8,29.77,NNW,338,17.3,17.3,29,0.04,CLR,,0.11,WeatherDisplay:10.37,2013-02-17 17:30:00,
2013-02-17 12:35:00,34.9,5.0,29.77,NNW,338,24.2,24.2,28,0.01,CLR,,0.11,WeatherDisplay:10.37,2013-02-17 17:35:00,
2013-02-17 12:40:00,35.4,6.3,29.77,North,0,17.3,17.3,29,0.01,CLR,,0.11,WeatherDisplay:10.37,2013-02-17 17:40:00,
2013-02-17 12:45:00,35.1,5.2,29.77,WNW,292,21.9,21.9,28,0.04,RA,,0.13,WeatherDisplay:10.37,2013-02-17 17:45:00,
2013-02-17 12:50:00,34.9,3.4,29.77,North,0,26.5,26.5,26,0.02,RA,,0.13,WeatherDisplay:10.37,2013-02-17 17:50:00,
2013-02-17 12:55:00,34.9,3.4,29.77,SW,225,23.0,23.0,26,0.02,CLR,,0.13,WeatherDisplay:10.37,2013-02-17 17:55:00,
2013-02-17 13:00:00,35.8,5.0,29.77,NE,45,15.0,15.0,27,0.02,CLR,,0.13,WeatherDisplay:10.37,2013-02-17 18:00:00,
2013-02-17 13:05:00,35.2,3.7,29.76,NE,45,23.0,23.0,26,0.02,CLR,,0.13,WeatherDisplay:10.37,2013-02-17 18:05:00,
2013-02-17 13:10:00,35.4,3.9,29.76,NW,315,21.9,21.9,26,0.02,CLR,,0.13,WeatherDisplay:10.37,2013-02-17 18:10:00,
2013-02-17 13:15:00,35.8,2.4,29.76,WNW,292,26.5,26.5,24,0.04,RA,,0.14,WeatherDisplay:10.37,2013-02-17 18:15:00,
2013-02-17 13:20:00,36.0,3.5,29.76,North,0,10.4,10.4,25,0.04,RA,,0.14,WeatherDisplay:10.37,2013-02-17 18:20:00,
2013-02-17 13:25:00,37.0,5.3,29.76,North,0,12.7,12.7,26,0.04,,,0.14,WeatherDisplay:10.37,2013-02-17 18:25:00,
2013-02-17 13:30:00,36.0,4.3,29.76,NE,45,15.0,15.0,26,0.04,CLR,,0.14,WeatherDisplay:10.37,2013-02-17 18:30:00,
2013-02-17 13:35:00,34.7,3.2,29.76,NE,45,17.3,17.3,26,0.06,RA,,0.17,WeatherDisplay:10.37,2013-02-17 18:35:00,
2013-02-17 13:40:00,35.4,5.5,29.76,SW,225,13.8,13.8,28,0.06,RA,,0.17,WeatherDisplay:10.37,2013-02-17 18:40:00,
2013-02-17 13:45:00,35.2,5.3,29.76,NNW,338,12.7,12.7,28,0.04,CLR,,0.17,WeatherDisplay:10.37,2013-02-17 18:45:00,
2013-02-17 13:50:00,35.2,5.3,29.76,SW,225,26.5,26.5,28,0.04,CLR,,0.17,WeatherDisplay:10.37,2013-02-17 18:50:00,
2013-02-17 13:55:00,35.4,4.7,29.76,North,0,12.7,12.7,27,0.04,CLR,,0.17,WeatherDisplay:10.37,2013-02-17 18:55:00,
2013-02-17 14:00:00,35.8,5.0,29.76,North,0,11.5,11.5,27,0.04,CLR,,0.17,WeatherDisplay:10.37,2013-02-17 19:00:00,
2013-02-17 14:05:00,35.8,6.6,29.76,WNW,292,12.7,12.7,29,0.04,CLR,,0.17,WeatherDisplay:10.37,2013-02-17 19:05:00,
2013-02-17 14:10:00,35.8,5.8,29.76,East,90,17.3,17.3,28,0.04,CLR,,0.17,WeatherDisplay:10.37,2013-02-17 19:10:00,
2013-02-17 14:15:00,35.8,5.0,29.76,North,0,20.7,20.7,27,0.02,CLR,,0.17,WeatherDisplay:10.37,2013-02-17 19:15:00,
2013-02-17 14:20:00,35.8,4.2,29.76,North,0,21.9,21.9,26,0.02,CLR,,0.17,WeatherDisplay:10.37,2013-02-17 19:20:00,
2013-02-17 14:25:00,35.6,2.3,29.76,NE,45,19.6,19.6,24,0.02,CLR,,0.17,WeatherDisplay:10.37,2013-02-17 19:25:00,
2013-02-17 14:30:00,35.6,2.3,29.76,NE,45,19.6,19.6,24,0.02,CLR,,0.17,WeatherDisplay:10.37,2013-02-17 19:30:00,
2013-02-17 14:35:00,36.0,3.5,29.76,North,0,19.6,19.6,25,0.00,CLR,,0.17,WeatherDisplay:10.37,2013-02-17 19:35:00,
2013-02-17 14:40:00,36.0,3.5,29.76,North,0,18.4,18.4,25,0.00,CLR,,0.17,WeatherDisplay:10.37,2013-02-17 19:40:00,
2013-02-17 14:45:00,36.3,3.8,29.76,SW,225,15.0,15.0,25,0.00,CLR,,0.17,WeatherDisplay:10.37,2013-02-17 19:45:00,
2013-02-17 14:50:00,36.9,5.9,29.76,North,0,16.1,16.1,27,0.00,CLR,,0.17,WeatherDisplay:10.37,2013-02-17 19:50:00,
2013-02-17 14:55:00,36.5,3.9,29.76,NE,45,17.3,17.3,25,0.00,CLR,,0.17,WeatherDisplay:10.37,2013-02-17 19:55:00,
2013-02-17 15:00:00,36.3,3.8,29.76,South,180,16.1,16.1,25,0.00,CLR,,0.17,WeatherDisplay:10.37,2013-02-17 20:00:00,
2013-02-17 15:05:00,37.0,6.1,29.76,NW,315,16.1,16.1,27,0.00,CLR,,0.17,WeatherDisplay:10.37,2013-02-17 20:05:00,
2013-02-17 15:10:00,37.0,4.4,29.75,North,0,17.3,17.3,25,0.00,CLR,,0.17,WeatherDisplay:10.37,2013-02-17 20:10:00,
2013-02-17 15:15:00,36.7,3.2,29.76,NNW,338,18.4,18.4,24,0.00,CLR,,0.17,WeatherDisplay:10.37,2013-02-17 20:15:00,
2013-02-17 15:20:00,36.3,2.9,29.77,North,0,12.7,12.7,24,0.00,CLR,,0.17,WeatherDisplay:10.37,2013-02-17 20:20:00,
2013-02-17 15:25:00,36.7,3.2,29.76,NE,45,10.4,10.4,24,0.00,CLR,,0.17,WeatherDisplay:10.37,2013-02-17 20:25:00,
2013-02-17 15:30:00,36.9,3.4,29.76,East,90,11.5,11.5,24,0.00,CLR,,0.17,WeatherDisplay:10.37,2013-02-17 20:30:00,
2013-02-17 15:35:00,37.4,7.2,29.77,North,0,11.5,11.5,28,0.00,CLR,,0.17,WeatherDisplay:10.37,2013-02-17 20:35:00,
2013-02-17 15:40:00,37.0,3.5,29.76,WNW,292,11.5,11.5,24,0.00,CLR,,0.17,WeatherDisplay:10.37,2013-02-17 20:40:00,
2013-02-17 15:45:00,37.4,7.2,29.77,WSW,248,17.3,17.3,28,0.00,CLR,,0.17,WeatherDisplay:10.37,2013-02-17 20:45:00,
2013-02-17 15:50:00,37.0,3.5,29.77,NE,45,18.4,18.4,24,0.00,CLR,,0.17,WeatherDisplay:10.37,2013-02-17 20:50:00,
2013-02-17 15:55:00,37.0,2.6,29.76,North,0,17.3,17.3,23,0.00,CLR,,0.17,WeatherDisplay:10.37,2013-02-17 20:55:00,
2013-02-17 16:00:00,37.6,7.4,29.77,North,0,11.5,11.5,28,0.00,CLR,,0.17,WeatherDisplay:10.37,2013-02-17 21:00:00,
2013-02-17 16:05:00,37.8,7.5,29.77,East,90,10.4,10.4,28,0.00,CLR,,0.17,WeatherDisplay:10.37,2013-02-17 21:05:00,
2013-02-17 16:10:00,37.9,7.7,29.77,North,2,9.2,14.5,28,0.00,CLR,,0.17,WeatherDisplay:10.37,2013-02-17 21:10:00,
2013-02-17 16:15:00,37.6,6.6,29.77,NE,45,23.0,23.0,27,0.00,CLR,,0.17,WeatherDisplay:10.37,2013-02-17 21:15:00,
2013-02-17 16:20:00,37.2,1.8,29.77,North,0,19.6,19.6,22,0.00,CLR,,0.17,WeatherDisplay:10.37,2013-02-17 21:20:00,
2013-02-17 16:25:00,37.0,1.6,29.77,North,0,17.3,17.3,22,0.00,CLR,,0.17,WeatherDisplay:10.37,2013-02-17 21:25:00,
2013-02-17 16:30:00,37.4,6.4,29.77,North,0,12.7,12.7,27,0.00,CLR,,0.17,WeatherDisplay:10.37,2013-02-17 21:30:00,
2013-02-17 16:35:00,37.4,6.4,29.78,North,2,13.8,13.8,27,0.00,CLR,,0.17,WeatherDisplay:10.37,2013-02-17 21:35:00,
2013-02-17 16:40:00,37.4,6.4,29.77,NNE,14,12.7,12.7,27,0.00,CLR,,0.17,WeatherDisplay:10.37,2013-02-17 21:40:00,
2013-02-17 16:45:00,37.4,6.4,29.78,SW,225,11.5,11.5,27,0.00,CLR,,0.17,WeatherDisplay:10.37,2013-02-17 21:45:00,
2013-02-17 16:50:00,37.4,6.4,29.78,NW,315,10.4,10.4,27,0.00,CLR,,0.17,WeatherDisplay:10.37,2013-02-17 21:50:00,
2013-02-17 16:55:00,37.4,5.6,29.78,WNW,292,13.8,13.8,26,0.00,CLR,,0.17,WeatherDisplay:10.37,2013-02-17 21:55:00,
2013-02-17 17:00:00,37.4,6.4,29.78,North,0,5.8,7.6,27,0.00,CLR,,0.17,WeatherDisplay:10.37,2013-02-17 22:00:00,
2013-02-17 17:05:00,37.4,6.4,29.78,North,0,12.7,12.7,27,0.00,CLR,,0.17,WeatherDisplay:10.37,2013-02-17 22:05:00,
2013-02-17 17:10:00,37.0,1.6,29.79,North,0,12.7,12.7,22,0.00,CLR,,0.17,WeatherDisplay:10.37,2013-02-17 22:10:00,
2013-02-17 17:15:00,36.9,1.5,29.79,NNW,338,13.0,13.0,22,0.00,CLR,,0.17,WeatherDisplay:10.37,2013-02-17 22:15:00,
2013-02-17 17:20:00,36.9,2.4,29.79,North,0,10.4,10.4,23,0.00,CLR,,0.17,WeatherDisplay:10.37,2013-02-17 22:20:00,
2013-02-17 17:25:00,36.9,2.4,29.80,West,270,4.6,4.6,23,0.00,CLR,,0.17,WeatherDisplay:10.37,2013-02-17 22:25:00,
2013-02-17 17:30:00,36.9,3.4,29.80,WNW,292,5.8,5.8,24,0.00,CLR,,0.17,WeatherDisplay:10.37,2013-02-17 22:30:00,
2013-02-17 17:35:00,36.7,2.3,29.80,North,0,8.1,8.1,23,0.00,CLR,,0.17,WeatherDisplay:10.37,2013-02-17 22:35:00,
2013-02-17 17:40:00,36.5,2.1,29.80,North,0,5.8,5.8,23,0.00,CLR,,0.17,WeatherDisplay:10.37,2013-02-17 22:40:00,
2013-02-17 17:45:00,36.1,1.8,29.80,North,0,9.2,9.2,23,0.00,CLR,,0.17,WeatherDisplay:10.37,2013-02-17 22:45:00,
2013-02-17 17:50:00,36.0,1.7,29.81,NE,45,8.1,8.1,23,0.00,CLR,,0.17,WeatherDisplay:10.37,2013-02-17 22:50:00,
2013-02-17 17:55:00,35.6,1.4,29.81,North,0,10.4,10.4,23,0.00,CLR,,0.17,WeatherDisplay:10.37,2013-02-17 22:55:00,
2013-02-17 18:00:00,35.6,1.4,29.81,NE,45,10.4,10.4,23,0.00,CLR,,0.17,WeatherDisplay:10.37,2013-02-17 23:00:00,
2013-02-17 18:05:00,35.4,2.1,29.81,North,0,6.9,6.9,24,0.00,CLR,,0.17,WeatherDisplay:10.37,2013-02-17 23:05:00,
2013-02-17 18:10:00,35.4,3.0,29.81,NE,45,4.6,4.6,25,0.00,CLR,,0.17,WeatherDisplay:10.37,2013-02-17 23:10:00,
2013-02-17 18:15:00,35.1,2.7,29.81,North,0,6.9,6.9,25,0.00,CLR,,0.17,WeatherDisplay:10.37,2013-02-17 23:15:00,
2013-02-17 18:20:00,35.1,2.7,29.82,North,0,5.8,5.8,25,0.00,CLR,,0.17,WeatherDisplay:10.37,2013-02-17 23:20:00,
2013-02-17 18:25:00,34.9,2.6,29.82,NNW,338,4.6,4.6,25,0.00,CLR,,0.17,WeatherDisplay:10.37,2013-02-17 23:25:00,
2013-02-17 18:30:00,34.5,2.2,29.82,North,0,5.8,5.8,25,0.00,CLR,,0.17,WeatherDisplay:10.37,2013-02-17 23:30:00,
2013-02-17 18:35:00,34.3,2.1,29.82,NNE,22,4.6,4.6,25,0.00,CLR,,0.17,WeatherDisplay:10.37,2013-02-17 23:35:00,
2013-02-17 18:40:00,34.3,2.1,29.82,NE,45,4.6,4.6,25,0.00,CLR,,0.17,WeatherDisplay:10.37,2013-02-17 23:40:00,
2013-02-17 18:45:00,34.0,1.8,29.82,WSW,248,5.8,5.8,25,0.00,CLR,,0.17,WeatherDisplay:10.37,2013-02-17 23:45:00,
2013-02-17 18:50:00,33.8,2.5,29.83,North,0,6.9,6.9,26,0.00,CLR,,0.17,WeatherDisplay:10.37,2013-02-17 23:50:00,
2013-02-17 18:55:00,33.8,1.6,29.83,NE,45,3.5,3.5,25,0.00,CLR,,0.17,WeatherDisplay:10.37,2013-02-17 23:55:00,
2013-02-17 19:00:00,33.6,3.1,29.83,North,0,5.4,5.4,27,0.00,CLR,,0.17,WeatherDisplay:10.37,2013-02-18 00:00:00,
2013-02-17 19:05:00,33.6,2.3,29.84,North,0,4.6,4.6,26,0.00,CLR,,0.17,WeatherDisplay:10.37,2013-02-18 00:05:00,
2013-02-17 19:10:00,33.4,3.0,29.83,North,0,3.5,3.5,27,0.00,CLR,,0.17,WeatherDisplay:10.37,2013-02-18 00:10:00,
2013-02-17 19:15:00,32.9,1.7,29.83,North,0,2.3,2.3,26,0.00,CLR,,0.17,WeatherDisplay:10.37,2013-02-18 00:15:00,
2013-02-17 19:20:00,32.5,3.0,29.84,North,0,2.3,0.0,28,0.00,CLR,,0.17,WeatherDisplay:10.37,2013-02-18 00:20:00,
2013-02-17 19:25:00,32.0,3.3,29.85,North,0,0.0,0.0,29,0.00,CLR,,0.17,WeatherDisplay:10.37,2013-02-18 00:25:00,
2013-02-17 19:30:00,31.5,3.5,29.84,South,180,0.0,0.0,30,0.00,CLR,,0.17,WeatherDisplay:10.37,2013-02-18 00:30:00,
2013-02-17 19:35:00,30.9,3.1,29.85,South,180,0.0,0.0,30,0.00,CLR,,0.17,WeatherDisplay:10.37,2013-02-18 00:35:00,
2013-02-17 19:40:00,30.6,4.1,29.85,North,0,1.2,1.2,32,0.00,CLR,,0.17,WeatherDisplay:10.37,2013-02-18 00:40:00,
2013-02-17 19:45:00,30.9,5.1,29.85,North,0,2.3,2.3,33,0.00,CLR,,0.17,WeatherDisplay:10.37,2013-02-18 00:45:00,
2013-02-17 19:50:00,30.7,5.6,29.85,NE,45,0.0,0.0,34,0.00,CLR,,0.17,WeatherDisplay:10.37,2013-02-18 00:50:00,
2013-02-17 19:55:00,30.4,5.3,29.86,NE,45,0.0,0.0,34,0.00,CLR,,0.17,WeatherDisplay:10.37,2013-02-18 00:55:00,
2013-02-17 20:00:00,30.2,5.8,29.86,NW,315,0.0,0.0,35,0.00,CLR,,0.17,WeatherDisplay:10.37,2013-02-18 01:00:00,
2013-02-17 20:05:00,29.8,6.1,29.86,NE,45,0.0,0.0,36,0.00,CLR,,0.17,WeatherDisplay:10.37,2013-02-18 01:05:00,
2013-02-17 20:10:00,29.5,6.4,29.86,NE,45,0.0,0.0,37,0.00,CLR,,0.17,WeatherDisplay:10.37,2013-02-18 01:10:00,
2013-02-17 20:15:00,29.1,7.2,29.86,NE,45,0.0,0.0,39,0.00,CLR,,0.17,WeatherDisplay:10.37,2013-02-18 01:15:00,
2013-02-17 20:20:00,28.6,7.8,29.87,NE,45,0.0,0.0,41,0.00,CLR,,0.17,WeatherDisplay:10.37,2013-02-18 01:20:00,
2013-02-17 20:25:00,28.4,8.7,29.87,NE,45,0.0,0.0,43,0.00,CLR,,0.17,WeatherDisplay:10.37,2013-02-18 01:25:00,
2013-02-17 20:30:00,27.9,6.6,29.87,NE,45,0.0,0.0,40,0.00,CLR,,0.17,WeatherDisplay:10.37,2013-02-18 01:30:00,
2013-02-17 20:35:00,27.9,6.6,29.88,NE,45,0.0,0.0,40,0.00,CLR,,0.17,WeatherDisplay:10.37,2013-02-18 01:35:00,
2013-02-17 20:40:00,27.1,6.5,29.88,SW,225,0.0,0.0,41,0.00,CLR,,0.17,WeatherDisplay:10.37,2013-02-18 01:40:00,
2013-02-17 20:45:00,27.0,6.9,29.88,SE,135,0.0,0.0,42,0.00,CLR,,0.17,WeatherDisplay:10.37,2013-02-18 01:45:00,
2013-02-17 20:50:00,27.0,7.4,29.88,SE,135,0.0,0.0,43,0.00,CLR,,0.17,WeatherDisplay:10.37,2013-02-18 01:50:00,
2013-02-17 20:55:00,26.8,7.2,29.89,North,0,1.2,0.0,43,0.00,CLR,,0.17,WeatherDisplay:10.37,2013-02-18 01:55:00,
2013-02-17 21:00:00,26.8,8.2,29.89,North,0,0.0,0.0,45,0.00,CLR,,0.17,WeatherDisplay:10.37,2013-02-18 02:00:00,
2013-02-17 21:05:00,26.8,8.2,29.89,North,0,0.0,0.0,45,0.00,CLR,,0.17,WeatherDisplay:10.37,2013-02-18 02:05:00,
2013-02-17 21:10:00,26.6,10.4,29.90,North,0,1.2,0.0,50,0.00,CLR,,0.17,WeatherDisplay:10.37,2013-02-18 02:10:00,
2013-02-17 21:15:00,26.4,10.7,29.89,East,90,0.0,0.0,51,0.00,CLR,,0.17,WeatherDisplay:10.37,2013-02-18 02:15:00,
2013-02-17 21:20:00,26.2,10.1,29.90,East,90,0.0,0.0,50,0.00,CLR,,0.17,WeatherDisplay:10.37,2013-02-18 02:20:00,
2013-02-17 21:25:00,26.1,9.5,29.90,South,180,0.0,0.0,49,0.00,CLR,,0.17,WeatherDisplay:10.37,2013-02-18 02:25:00,
2013-02-17 21:30:00,25.9,9.8,29.90,South,180,0.0,0.0,50,0.00,CLR,,0.17,WeatherDisplay:10.37,2013-02-18 02:30:00,
2013-02-17 21:35:00,25.5,10.3,29.91,South,180,0.0,0.0,52,0.00,CLR,,0.17,WeatherDisplay:10.37,2013-02-18 02:35:00,
2013-02-17 21:40:00,25.2,10.0,29.90,South,180,0.0,0.0,52,0.00,CLR,,0.17,WeatherDisplay:10.37,2013-02-18 02:40:00,
2013-02-17 21:45:00,25.0,9.8,29.91,South,180,0.0,0.0,52,0.00,CLR,,0.17,WeatherDisplay:10.37,2013-02-18 02:45:00,
2013-02-17 21:50:00,24.8,9.6,29.91,South,180,0.0,0.0,52,0.00,CLR,,0.17,WeatherDisplay:10.37,2013-02-18 02:50:00,
2013-02-17 21:55:00,24.6,10.3,29.91,SE,135,0.0,0.0,54,0.00,CLR,,0.17,WeatherDisplay:10.37,2013-02-18 02:55:00,
2013-02-17 22:00:00,24.6,10.3,29.91,SE,135,0.0,0.0,54,0.00,CLR,,0.17,WeatherDisplay:10.37,2013-02-18 03:00:00,
2013-02-17 22:05:00,24.6,11.5,29.91,SE,135,0.0,0.0,57,0.00,CLR,,0.17,WeatherDisplay:10.37,2013-02-18 03:05:00,
2013-02-17 22:10:00,24.4,12.9,29.91,SE,135,1.2,0.0,61,0.00,CLR,,0.17,WeatherDisplay:10.37,2013-02-18 03:10:00,
2013-02-17 22:15:00,24.3,13.5,29.91,NE,45,0.0,0.0,63,0.00,CLR,,0.17,WeatherDisplay:10.37,2013-02-18 03:15:00,
2013-02-17 22:20:00,24.3,13.5,29.91,NE,45,0.0,0.0,63,0.00,CLR,,0.17,WeatherDisplay:10.37,2013-02-18 03:20:00,
2013-02-17 22:25:00,24.4,13.6,29.91,East,90,1.2,0.0,63,0.00,CLR,,0.17,WeatherDisplay:10.37,2013-02-18 03:25:00,
2013-02-17 22:30:00,24.4,13.6,29.91,North,0,1.2,0.0,63,0.00,CLR,,0.17,WeatherDisplay:10.37,2013-02-18 03:30:00,
2013-02-17 22:35:00,24.3,13.1,29.92,SE,135,0.0,0.0,62,0.00,CLR,,0.17,WeatherDisplay:10.37,2013-02-18 03:35:00,
2013-02-17 22:40:00,24.3,13.1,29.92,SE,135,0.0,0.0,62,0.00,CLR,,0.17,WeatherDisplay:10.37,2013-02-18 03:40:00,
2013-02-17 22:45:00,23.9,12.8,29.92,SE,135,0.0,0.0,62,0.00,CLR,,0.17,WeatherDisplay:10.37,2013-02-18 03:45:00,
2013-02-17 22:50:00,23.9,13.1,29.92,SW,225,1.2,0.0,63,0.00,CLR,,0.17,WeatherDisplay:10.37,2013-02-18 03:50:00,
2013-02-17 22:55:00,24.1,13.3,29.92,NE,45,0.0,0.0,63,0.00,CLR,,0.17,WeatherDisplay:10.37,2013-02-18 03:55:00,
2013-02-17 23:00:00,23.9,13.1,29.92,SSE,158,2.3,2.3,63,0.00,CLR,,0.17,WeatherDisplay:10.37,2013-02-18 04:00:00,
2013-02-17 23:05:00,23.9,13.1,29.93,SSE,158,2.3,2.3,63,0.00,CLR,,0.17,WeatherDisplay:10.37,2013-02-18 04:05:00,
2013-02-17 23:10:00,23.4,13.7,29.93,North,0,1.2,0.0,66,0.00,CLR,,0.17,WeatherDisplay:10.37,2013-02-18 04:10:00,
2013-02-17 23:15:00,23.2,13.5,29.93,NW,315,2.3,2.3,66,0.00,CLR,,0.17,WeatherDisplay:10.37,2013-02-18 04:15:00,
2013-02-17 23:20:00,23.4,14.0,29.93,North,0,1.2,0.0,67,0.00,CLR,,0.17,WeatherDisplay:10.37,2013-02-18 04:20:00,
2013-02-17 23:25:00,23.2,14.2,29.93,South,180,1.2,0.0,68,0.00,CLR,,0.17,WeatherDisplay:10.37,2013-02-18 04:25:00,
2013-02-17 23:30:00,23.2,14.5,29.94,South,180,1.2,1.2,69,0.00,CLR,,0.17,WeatherDisplay:10.37,2013-02-18 04:30:00,
2013-02-17 23:35:00,22.8,14.5,29.94,South,180,0.0,0.0,70,0.00,CLR,,0.17,WeatherDisplay:10.37,2013-02-18 04:35:00,
2013-02-17 23:40:00,22.5,14.1,29.94,SE,135,0.0,0.0,70,0.00,CLR,,0.17,WeatherDisplay:10.37,2013-02-18 04:40:00,
2013-02-17 23:45:00,22.6,14.3,29.94,South,180,0.0,0.0,70,0.00,CLR,,0.17,WeatherDisplay:10.37,2013-02-18 04:45:00,
2013-02-17 23:50:00,22.6,15.0,29.94,South,180,1.2,0.0,72,0.00,CLR,,0.17,WeatherDisplay:10.37,2013-02-18 04:50:00,
2013-02-17 23:55:00,22.5,15.1,29.94,East,90,0.0,0.0,73,0.00,CLR,,0.17,WeatherDisplay:10.37,2013-02-18 04:55:00,